Location: D�derode
(51.8092°N, 10.1065°E)
Time: 05:00:56
(UTC+00:00)

Cosmos 44 - Pass Details

Date: 01 December 2020
Orbit: 574 x 788 km, 65.1° (Epoch: 23 January)

Event Time Altitude Azimuth Distance (km) Brightness Sun altitude
Rises 15:58:58 0° 317° (NW) 3,184 6.9 -7.0°
Reaches altitude 10° 16:01:19 10° 315° (NW) 2,284 6.2 -7.3°
Maximum altitude 16:06:33 68° 233° (SW) 837 4.0 -8.0°
Drops below altitude 10° 16:11:55 10° 152° (SSE) 2,342 6.0 -8.8°
Sets 16:14:22 0° 150° (SSE) 3,270 6.7 -9.1°
